Regional Weather Roundup
Issued by NWS

Home | Current Version | Previous Version | Graphics & Text | Print | Product List | Glossary On
Versions: 1 2 3 4 5 6 7 8 9 10 11 12 13 14 15 16 17 18 19 20 21 22 23 24 25 26 27 28 29 30 31 32 33 34 35 36 37 38 39 40 41 42 43 44 45 46 47 48 49 50
000
ASUS45 KPSR 280300
RWRAZ

PRELIMINARY ARIZONA REGIONAL HOURLY WEATHER ROUNDUP
NATIONAL WEATHER SERVICE PHOENIX AZ
800 PM MST WED AUG 27 2014

NOTE: FAIR INDICATES FEW OR NO CLOUDS BELOW 12,000 FEET WITH NO
SIGNIFICANT WEATHER AND/OR OBSTRUCTIONS TO VISIBILITY.

AZZ001>003-036-280400-
NORTHWEST ARIZONA

CITY           SKY/WX    TMP DP  RH WIND       PRES   REMARKS
KINGMAN        PTCLDY    78  45  30 S5        30.11R
$$

AZZ004>008-015-016-018-280400-
NORTH CENTRAL ARIZONA

CITY           SKY/WX    TMP DP  RH WIND       PRES   REMARKS
GRAND CANYON     N/A    N/A N/A N/A MISG        N/A
WILLIAMS       MOCLDY    63  48  59 SW7       30.40R
PRESCOTT       PTCLDY    68  54  60 SW3       30.23R
FLAGSTAFF      RAIN      56  51  84 VRB3      30.39R
PAYSON         PTCLDY    66  59  77 NE5       30.26R
PAGE           PTCLDY    77  51  40 CALM      30.16R
$$

AZZ009>014-017-280400-
NORTHEAST ARIZONA

CITY           SKY/WX    TMP DP  RH WIND       PRES   REMARKS
WINSLOW        NOT AVBL
SAINT JOHNS    MOCLDY    66  53  63 SW5       30.27R
$$

AZZ023-280400-
GREATER PHOENIX AREA

CITY           SKY/WX    TMP DP  RH WIND       PRES   REMARKS
PHOENIX        PTCLDY    98  56  24 W12       29.90R
GLENDALE       PTCLDY    97  61  30 S3        29.92R
LUKE AFB       NOT AVBL
DEER VALLEY    CLEAR     94  56  27 NW3       29.93R
SCOTTSDALE     CLEAR     95  57  27 W3        29.95R
MESA-GATEWAY   CLEAR     93  50  22 NW8       29.95R
$$

AZZ027-028-280400-
SOUTHWEST MARICOPA COUNTY AND PINAL COUNTY

CITY           SKY/WX    TMP DP  RH WIND       PRES   REMARKS
CASA GRANDE    CLEAR     93  57  29 CALM      29.95R
GILA BEND      CLEAR     97  52  21 W2        29.91R
$$

AZZ503-504-507>509-280400-
SOUTHEAST ARIZONA

CITY           SKY/WX    TMP DP  RH WIND       PRES   REMARKS
TUCSON         CLEAR     91  55  29 N6        30.05R
DAVIS-MONTHAN  CLEAR     88  57  35 NW7       30.04R
RYAN FIELD       N/A     88  59  37 N8        30.04R
NOGALES        CLEAR     75  60  59 CALM      30.14R
SIERRA VISTA   PTCLDY    73  59  60 W6        30.22R
SAFFORD        CLEAR     84  53  34 NW8       30.05R
$$

AZZ020-021-025-026-031-280400-
SOUTHWEST ARIZONA

CITY           SKY/WX    TMP DP  RH WIND       PRES   REMARKS
YUMA           NOT AVBL
$$

CAZ031-033-041-043-047-048-061-280400-
SOUTHERN CALIFORNIA

CITY           SKY/WX    TMP DP  RH WIND       PRES   REMARKS
DOWNTOWN L.A.  CLEAR     78  51  38 W6        29.97R
L.A. AIRPORT   CLEAR     73  60  63 W10       29.98R
SAN DIEGO      CLEAR     81  52  36 N7        29.99R
BURBANK        CLEAR     87  46  24 CALM      29.99R
ONTARIO        CLEAR     86  47  25 W7        30.00R
RIVERSIDE      CLEAR     85  51  31 W8        30.00R
PALM SPRINGS   CLEAR     99  48  17 NW18      29.88R
IMPERIAL       CLEAR    101  51  18 SE5       29.82R
BLYTHE         CLEAR     97  53  22 SE6       29.85R
$$

NVZ020-UTZ003-280400-
SOUTHERN NEVADA-UTAH

CITY           SKY/WX    TMP DP  RH WIND       PRES   REMARKS
LAS VEGAS      NOT AVBL
SALT LAKE CITY MOCLDY    69  48  47 S5        30.20R
$$

NMZ009-TXZ055-280400-
NEW MEXICO-WEST TEXAS

CITY           SKY/WX    TMP DP  RH WIND       PRES   REMARKS
ALBUQUERQUE    PTCLDY    75  50  41 S5        30.22R
EL PASO        MOCLDY    74  59  59 N17G30    30.15R THUNDER
$$


........................KEY........................
SKY/WX - SKY CONDITION/WEATHER
TMP    - TEMPERATURE IN FAHRENHEIT
DP     - DEW POINT IN FAHRENHEIT
RH     - RELATIVE HUMIDITY IN PERCENT
WIND   - DIRECTION AND SPEED IN MILES PER HOUR (MPH)
VRB    - VARIABLE WIND DIRECTION
PRES   - MEAN SEA LEVEL PRESSURE IN INCHES OF MERCURY
         F - FALLING PRESSURE   R - RISING PRESSURE
         S - STEADY PRESSURE
VSB    - VISIBILITY IN MILES
HX     - HEAT INDEX IN FAHRENHEIT
WCI    - WIND CHILL INDEX IN FAHRENHEIT
TC     - TEMPERATURE IN CELSIUS WHICH IS ALSO KNOWN AS
         TEMPERATURE IN CENTIGRADE
AFB    - AIR FORCE BASE
         LUKE AFB IS LUKE AIR FORCE BASE
         DAVIS-MONTHAN IS DAVIS-MONTHAN AIR FORCE BASE
NAS    - NAVAL AIR STATION
         EL CENTRO NAS IS EL CENTRO NAVAL AIR STATION
N/A    - NOT AVAILABLE



USA.gov is the U.S. government's official web portal to all federal, state and local government web resources and services.